Location: Newark
(45.9456°N, 15.4064°E)
Time: 18:32:51
(UTC+00:00)

Courier 1B Rocket - Pass Details

Date: 22 January 2020
Orbit: 920 x 1202 km, 28.2° (Epoch: 21 February)

Event Time Altitude Azimuth Distance (km) Brightness Sun altitude
Rises 13:55:09 0° 239° (WSW) 3,710 9.5 14.4°
Reaches altitude 10° 13:59:04 10° 217° (SW) 2,706 10.5 14.0°
Maximum altitude 14:02:38 15° 184° (S) 2,298 8.0 13.6°
Drops below altitude 10° 14:06:07 10° 150° (SSE) 2,633 7.6 13.2°
Sets 14:09:51 0° 128° (SE) 3,553 7.9 12.7°
